Radiation Dose at Monitoring Post of Fukushima Daini Nuclear Power Station
Date,Time,MP-1(microSv/h),MP-2(microSv/h),MP-3(microSv/h),MP-4(microSv/h),MP-5(microSv/h),MP-6(microSv/h),MP-7(microSv/h),Wind Direction,Wind Velocity(m/s),Rain
2020/01/30,00:00,0.176,0.158,0.265,0.247,0.248,0.134,0.083,west,8.4,No
2020/01/30,00:10,0.176,0.157,0.266,0.246,0.248,0.134,0.083,west-northwest,7.9,No
2020/01/30,00:20,0.175,0.158,0.265,0.247,0.247,0.134,0.083,west-northwest,13.1,No
2020/01/30,00:30,0.175,0.159,0.265,0.247,0.248,0.134,0.084,west-northwest,14.2,No
2020/01/30,00:40,0.175,0.158,0.265,0.246,0.248,0.134,0.083,west-northwest,14.2,No
2020/01/30,00:50,0.176,0.158,0.265,0.248,0.247,0.134,0.084,west-northwest,11.2,No
2020/01/30,01:00,0.176,0.158,0.266,0.247,0.247,0.136,0.084,west-northwest,9.6,No
2020/01/30,01:10,0.175,0.157,0.267,0.247,0.249,0.135,0.083,northwest,7.9,No
2020/01/30,01:20,0.176,0.158,0.267,0.247,0.249,0.134,0.083,west-northwest,4.6,No
2020/01/30,01:30,0.176,0.158,0.266,0.248,0.249,0.134,0.084,west,2.9,No
2020/01/30,01:40,0.177,0.158,0.266,0.247,0.249,0.135,0.084,north-northwest,1.5,No
2020/01/30,01:50,0.177,0.158,0.267,0.246,0.248,0.134,0.084,west-northwest,2.7,No
2020/01/30,02:00,0.177,0.159,0.266,0.248,0.248,0.135,0.083,west-northwest,3.0,No
2020/01/30,02:10,0.177,0.159,0.266,0.246,0.249,0.135,0.083,west-northwest,4.9,No
2020/01/30,02:20,0.176,0.159,0.266,0.247,0.247,0.135,0.084,west-northwest,5.2,No
2020/01/30,02:30,0.176,0.159,0.266,0.249,0.248,0.135,0.084,west-northwest,6.2,No
2020/01/30,02:40,0.176,0.157,0.265,0.247,0.249,0.133,0.084,west-northwest,4.6,No
2020/01/30,02:50,0.176,0.159,0.266,0.247,0.247,0.134,0.083,west-northwest,6.8,No
2020/01/30,03:00,0.177,0.158,0.265,0.247,0.249,0.134,0.083,west-northwest,7.0,No
2020/01/30,03:10,0.176,0.159,0.265,0.246,0.248,0.135,0.084,west,7.5,No
2020/01/30,03:20,0.176,0.158,0.267,0.248,0.248,0.136,0.083,west-northwest,7.3,No
2020/01/30,03:30,0.177,0.158,0.266,0.248,0.248,0.134,0.083,west,8.6,No
2020/01/30,03:40,0.176,0.158,0.266,0.246,0.248,0.134,0.084,west,6.6,No
2020/01/30,03:50,0.177,0.158,0.267,0.246,0.248,0.134,0.084,west,4.8,No
2020/01/30,04:00,0.177,0.159,0.266,0.248,0.250,0.135,0.083,northwest,3.9,No
2020/01/30,04:10,0.177,0.158,0.266,0.246,0.248,0.135,0.083,west-northwest,3.5,No
2020/01/30,04:20,0.176,0.158,0.266,0.247,0.248,0.135,0.083,west-northwest,4.6,No
2020/01/30,04:30,0.177,0.158,0.266,0.248,0.249,0.135,0.083,west-northwest,4.3,No
2020/01/30,04:40,0.176,0.158,0.267,0.248,0.248,0.135,0.083,west-northwest,6.4,No
2020/01/30,04:50,0.176,0.160,0.267,0.247,0.249,0.135,0.084,west,9.8,No
2020/01/30,05:00,0.177,0.160,0.266,0.247,0.249,0.135,0.084,west-northwest,7.3,No
2020/01/30,05:10,0.176,0.158,0.267,0.247,0.248,0.134,0.084,west-northwest,8.1,No
2020/01/30,05:20,0.176,0.159,0.267,0.248,0.249,0.135,0.083,west-northwest,7.9,No
2020/01/30,05:30,0.177,0.158,0.266,0.248,0.250,0.135,0.084,west-northwest,6.3,No
2020/01/30,05:40,0.177,0.158,0.265,0.248,0.248,0.135,0.084,west-northwest,7.4,No
2020/01/30,05:50,0.176,0.160,0.268,0.247,0.248,0.135,0.084,west-northwest,9.5,No
2020/01/30,06:00,0.177,0.158,0.266,0.248,0.250,0.134,0.083,west-northwest,9.2,No
2020/01/30,06:10,0.177,0.158,0.267,0.248,0.248,0.135,0.083,west-northwest,10.4,No
2020/01/30,06:20,0.176,0.159,0.267,0.247,0.248,0.135,0.083,west-northwest,8.5,No
2020/01/30,06:30,0.178,0.159,0.266,0.247,0.249,0.135,0.083,west-northwest,5.7,No
2020/01/30,06:40,0.178,0.158,0.267,0.248,0.247,0.135,0.083,west-northwest,5.4,No
2020/01/30,06:50,0.176,0.159,0.267,0.247,0.248,0.135,0.083,west-northwest,4.9,No
2020/01/30,07:00,0.177,0.159,0.265,0.247,0.249,0.135,0.084,west-northwest,7.5,No
2020/01/30,07:10,0.177,0.159,0.267,0.248,0.248,0.136,0.083,west-northwest,8.5,No
2020/01/30,07:20,0.177,0.158,0.268,0.249,0.249,0.135,0.084,west-northwest,7.6,No
2020/01/30,07:30,0.178,0.159,0.267,0.247,0.250,0.136,0.083,west-northwest,6.5,No
2020/01/30,07:40,0.177,0.159,0.266,0.248,0.249,0.135,0.084,north-northwest,1.5,No
2020/01/30,07:50,0.177,0.159,0.267,0.248,0.248,0.135,0.084,north,1.1,No
2020/01/30,08:00,0.176,0.159,0.267,0.248,0.249,0.136,0.083,-,CALM,No
2020/01/30,08:10,0.178,0.159,0.267,0.250,0.249,0.136,0.085,west,0.9,No
2020/01/30,08:20,0.177,0.159,0.268,0.246,0.248,0.135,0.083,-,CALM,No
2020/01/30,08:30,0.177,0.159,0.268,0.247,0.248,0.136,0.084,southeast,1.7,No
2020/01/30,08:40,0.177,0.160,0.266,0.248,0.249,0.135,0.083,east-southeast,2.6,No
2020/01/30,08:50,0.177,0.159,0.267,0.246,0.249,0.135,0.083,northwest,0.6,No
2020/01/30,09:00,0.176,0.159,0.267,0.248,0.249,0.135,0.083,northeast,1.2,No
2020/01/30,09:10,0.176,0.159,0.268,0.247,0.249,0.136,0.084,east,1.6,No
2020/01/30,09:20,0.178,0.158,0.267,0.249,0.249,0.135,0.084,east,1.9,No
2020/01/30,09:30,0.177,0.157,0.267,0.247,0.250,0.135,0.084,east,2.0,No
2020/01/30,09:40,0.176,0.159,0.267,0.247,0.249,0.135,0.084,east,2.5,No
2020/01/30,09:50,0.176,0.157,0.266,0.246,0.249,0.135,0.084,east-southeast,2.3,No
2020/01/30,10:00,0.177,0.158,0.266,0.249,0.249,0.135,0.083,east-southeast,2.5,No
2020/01/30,10:10,0.176,0.158,0.267,0.247,0.249,0.136,0.082,east-southeast,2.9,No
2020/01/30,10:20,0.175,0.159,0.266,0.248,0.249,0.136,0.084,southeast,2.6,No
2020/01/30,10:30,0.176,0.158,0.267,0.246,0.248,0.135,0.084,southeast,2.0,No
2020/01/30,10:40,0.176,0.159,0.266,0.249,0.248,0.136,0.085,east-southeast,1.5,No
2020/01/30,10:50,0.177,0.157,0.268,0.247,0.250,0.135,0.084,east,1.5,No
2020/01/30,11:00,0.177,0.159,0.267,0.249,0.248,0.136,0.084,east-southeast,2.1,No
2020/01/30,11:10,0.175,0.158,0.267,0.248,0.250,0.136,0.085,southeast,2.0,No
2020/01/30,11:20,0.177,0.158,0.268,0.247,0.247,0.135,0.083,east-southeast,3.1,No
2020/01/30,11:30,0.175,0.158,0.265,0.248,0.248,0.137,0.084,east-southeast,4.0,No
2020/01/30,11:40,0.175,0.158,0.268,0.247,0.248,0.136,0.083,east-southeast,4.7,No
2020/01/30,11:50,0.177,0.158,0.265,0.249,0.247,0.136,0.084,southeast,4.1,No
2020/01/30,12:00,0.176,0.160,0.267,0.246,0.249,0.136,0.083,south-southeast,3.4,No
2020/01/30,12:10,0.175,0.159,0.265,0.249,0.247,0.136,0.084,south-southeast,4.0,No
2020/01/30,12:20,0.177,0.159,0.266,0.248,0.250,0.135,0.083,south-southeast,5.1,No
2020/01/30,12:30,0.178,0.159,0.266,0.250,0.248,0.136,0.085,south-southeast,5.0,No
2020/01/30,12:40,0.178,0.160,0.267,0.249,0.250,0.136,0.084,south-southeast,5.9,No
2020/01/30,12:50,0.177,0.159,0.268,0.250,0.248,0.136,0.084,south,4.3,No
2020/01/30,13:00,0.176,0.158,0.266,0.250,0.251,0.136,0.084,south,5.6,No
2020/01/30,13:10,0.178,0.160,0.268,0.250,0.249,0.136,0.084,south,6.4,No
2020/01/30,13:20,0.176,0.160,0.267,0.249,0.251,0.136,0.084,south,6.3,No
2020/01/30,13:30,0.177,0.159,0.267,0.248,0.249,0.136,0.085,south,4.7,No
2020/01/30,13:40,0.175,0.158,0.267,0.249,0.250,0.135,0.084,south,5.3,No
2020/01/30,13:50,0.178,0.160,0.268,0.249,0.249,0.135,0.084,south,4.8,No
2020/01/30,14:00,0.176,0.159,0.267,0.249,0.249,0.136,0.085,south,3.5,No
2020/01/30,14:10,0.177,0.158,0.266,0.247,0.248,0.136,0.084,southwest,2.5,No
2020/01/30,14:20,0.176,0.158,0.267,0.250,0.249,0.136,0.084,south-southwest,2.4,No
2020/01/30,14:30,0.177,0.160,0.267,0.248,0.248,0.135,0.084,west,2.8,No
2020/01/30,14:40,0.176,0.158,0.268,0.249,0.249,0.136,0.085,west-southwest,6.1,No
2020/01/30,14:50,0.176,0.160,0.267,0.247,0.248,0.136,0.084,west,6.6,No
2020/01/30,15:00,0.177,0.158,0.268,0.249,0.250,0.136,0.084,west-southwest,5.1,No
2020/01/30,15:10,0.177,0.160,0.268,0.248,0.248,0.136,0.084,west,4.7,No
2020/01/30,15:20,0.177,0.158,0.268,0.250,0.252,0.135,0.084,west,4.4,No
2020/01/30,15:30,0.177,0.159,0.268,0.248,0.248,0.135,0.084,west,4.8,No
2020/01/30,15:40,0.178,0.158,0.267,0.249,0.250,0.136,0.083,west-northwest,2.5,No
2020/01/30,15:50,0.178,0.160,0.268,0.249,0.248,0.136,0.084,west,4.8,No
2020/01/30,16:00,0.178,0.159,0.267,0.250,0.250,0.136,0.084,west,5.5,No
2020/01/30,16:10,0.177,0.159,0.268,0.249,0.249,0.135,0.084,west,4.6,No
2020/01/30,16:20,0.178,0.160,0.267,0.249,0.249,0.136,0.084,west,3.8,No
2020/01/30,16:30,0.177,0.159,0.267,0.250,0.250,0.136,0.084,northwest,1.0,No
2020/01/30,16:40,0.178,0.160,0.269,0.249,0.249,0.135,0.084,west-southwest,0.8,No
2020/01/30,16:50,0.178,0.159,0.267,0.249,0.250,0.136,0.084,west-southwest,3.9,No
2020/01/30,17:00,0.177,0.159,0.268,0.250,0.250,0.136,0.084,west,6.4,No
2020/01/30,17:10,0.178,0.161,0.268,0.250,0.251,0.137,0.083,west,7.6,No
2020/01/30,17:20,0.177,0.159,0.267,0.249,0.250,0.135,0.084,west,9.6,No
2020/01/30,17:30,0.177,0.158,0.268,0.250,0.249,0.136,0.084,west,7.5,No
2020/01/30,17:40,0.178,0.160,0.266,0.250,0.252,0.138,0.084,west,12.0,No
2020/01/30,17:50,0.177,0.159,0.267,0.251,0.249,0.137,0.084,west,11.2,No
2020/01/30,18:00,0.177,0.159,0.269,0.250,0.250,0.137,0.085,west,9.8,No
2020/01/30,18:10,0.178,0.160,0.268,0.249,0.250,0.136,0.083,west-northwest,7.3,No
2020/01/30,18:20,0.176,0.159,0.268,0.250,0.250,0.135,0.084,west-northwest,9.5,No
2020/01/30,18:30,0.178,0.159,0.268,0.250,0.250,0.137,0.085,west-northwest,7.3,No
2020/01/30,18:40,0.177,0.160,0.269,0.250,0.251,0.137,0.085,west-northwest,8.1,No
2020/01/30,18:50,0.177,0.161,0.268,0.251,0.250,0.137,0.084,west-northwest,8.1,No
2020/01/30,19:00,0.178,0.160,0.270,0.250,0.250,0.136,0.084,west-northwest,8.2,No
2020/01/30,19:10,0.179,0.161,0.270,0.249,0.250,0.136,0.083,west-northwest,8.5,No
2020/01/30,19:20,0.178,0.159,0.268,0.249,0.249,0.136,0.084,west-northwest,10.1,No
2020/01/30,19:30,0.177,0.160,0.269,0.251,0.249,0.136,0.083,west-northwest,10.0,No
2020/01/30,19:40,0.178,0.160,0.270,0.250,0.249,0.136,0.084,west-northwest,9.2,No
2020/01/30,19:50,0.178,0.160,0.269,0.249,0.250,0.137,0.084,west-northwest,10.0,No
2020/01/30,20:00,0.178,0.159,0.269,0.250,0.249,0.137,0.083,west-northwest,9.2,No
2020/01/30,20:10,0.178,0.160,0.270,0.250,0.251,0.136,0.084,west-northwest,8.4,No
2020/01/30,20:20,0.178,0.161,0.269,0.249,0.250,0.136,0.084,west,6.3,No
2020/01/30,20:30,0.178,0.160,0.270,0.250,0.249,0.136,0.083,west,5.6,No
2020/01/30,20:40,0.179,0.159,0.269,0.250,0.250,0.137,0.084,west,6.8,No
2020/01/30,20:50,0.179,0.160,0.268,0.248,0.249,0.136,0.084,west,7.3,No
2020/01/30,21:00,0.178,0.160,0.268,0.250,0.250,0.136,0.084,west,7.3,No
2020/01/30,21:10,0.178,0.159,0.269,0.250,0.250,0.137,0.084,west,6.3,No
2020/01/30,21:20,0.178,0.160,0.269,0.249,0.249,0.137,0.084,west,5.8,No
2020/01/30,21:30,0.178,0.160,0.268,0.249,0.249,0.137,0.084,west,6.8,No
2020/01/30,21:40,0.177,0.159,0.268,0.249,0.249,0.137,0.085,west,4.2,No
2020/01/30,21:50,0.178,0.160,0.268,0.251,0.251,0.136,0.084,west-northwest,2.6,No
2020/01/30,22:00,0.178,0.161,0.268,0.250,0.250,0.137,0.084,west-northwest,2.4,No
2020/01/30,22:10,0.177,0.159,0.269,0.249,0.249,0.137,0.085,west-northwest,2.1,No
2020/01/30,22:20,0.178,0.159,0.269,0.250,0.249,0.136,0.084,west,5.9,No
2020/01/30,22:30,0.179,0.160,0.268,0.250,0.250,0.136,0.084,northwest,4.4,No
2020/01/30,22:40,0.179,0.161,0.267,0.251,0.249,0.136,0.084,west-northwest,5.1,No
2020/01/30,22:50,0.177,0.159,0.269,0.250,0.249,0.137,0.084,west,4.8,No
2020/01/30,23:00,0.178,0.160,0.269,0.251,0.250,0.137,0.084,west,3.8,No
2020/01/30,23:10,0.177,0.160,0.267,0.251,0.250,0.137,0.084,west,3.9,No
2020/01/30,23:20,0.179,0.160,0.269,0.250,0.249,0.136,0.084,west,4.9,No
2020/01/30,23:30,0.179,0.159,0.269,0.251,0.249,0.137,0.084,west-northwest,5.5,No
2020/01/30,23:40,0.177,0.160,0.268,0.250,0.250,0.136,0.084,west-northwest,4.1,No
2020/01/30,23:50,0.178,0.160,0.268,0.250,0.249,0.137,0.084,west-northwest,3.2,No
